Princeton, MN

1:55 PM CST on November 14, 2019 (GMT -0600)
Princeton Municipal

Weather History for KPNM - September, 2019

Change the Weather History Date:

Sunday, September 29, 2019

  Actual Average Record
Temperature  
Mean Temperature 50 °F -  
Max Temperature 57 °F 62 °F 80 °F (2000)
Min Temperature 46 °F 38 °F 26 °F (2018)
Degree Days  
Heating Degree Days 14    
Moisture  
Dew Point 49 °F    
Average Humidity 89    
Maximum Humidity 100    
Minimum Humidity 54    
Precipitation  
Precipitation 0.00 in - - ()
Sea Level Pressure  
Sea Level Pressure 30.12 in    
Wind  
Wind Speed 8 mph (East)    
Max Wind Speed 16 mph    
Max Gust Speed 23 mph    
Visibility 5 miles    
Events Rain , Thunderstorm    
Averages and records for this station are not official NWS values.
T = Trace of Precipitation, MM = Missing Value Source: NWS Daily Summary

Daily Weather History Graph

Daily Weather History Graph

Search for Another Location

Airport or City:

Astronomy

Sep. 29, 2019 Rise Set
Actual Time 7:09 AM CDT 6:58 PM CDT
Civil Twilight 6:40 AM CDT 7:28 PM CDT
Nautical Twilight 6:05 AM CDT 8:02 PM CDT
Astronomical Twilight 5:30 AM CDT 8:37 PM CDT
Moon 8:01 AM CDT (9/29) 7:57 PM CDT (9/29)
Length of Visible Light 12h 47m
Length of Day
11h 48m
New Moon, 1% of the Moon is Illuminated
Sep 29
New Moon
Oct 5
First Quarter
Oct 13
Full
Oct 21
Last Quarter
Oct 27
New

Hourly Weather History & Observations

Time (CDT) Temp. Windchill Dew Point Humidity Pressure Visibility Wind Dir Wind Speed Gust Speed Precip Events Conditions
12:15 AM 51.8 °F - 37.4 °F 58% 30.24 in 10.0 mi NE 5.8 mph - N/A   Mostly Cloudy
12:16 AM 51.8 °F - 37.4 °F 58% 30.24 in 10.0 mi NE 5.8 mph - N/A   Mostly Cloudy
12:35 AM 51.8 °F - 35.6 °F 54% 30.24 in 10.0 mi ENE 6.9 mph - N/A   Overcast
12:59 AM 51.8 °F - 35.6 °F 54% 30.23 in 10.0 mi ENE 9.2 mph - N/A   Overcast
1:17 AM 51.8 °F - 35.6 °F 54% 30.24 in 10.0 mi ENE 8.1 mph - N/A   Overcast
1:35 AM 51.8 °F - 35.6 °F 54% 30.23 in 10.0 mi ENE 5.8 mph - N/A   Overcast
1:36 AM 51.8 °F - 35.6 °F 54% 30.23 in 10.0 mi ENE 6.9 mph - N/A   Overcast
1:55 AM 51.8 °F - 37.4 °F 58% 30.23 in 10.0 mi ENE 5.8 mph - N/A   Scattered Clouds
2:15 AM 51.8 °F - 37.4 °F 58% 30.23 in 10.0 mi NE 8.1 mph - N/A   Scattered Clouds
2:20 AM 51.8 °F - 37.4 °F 58% 30.23 in 10.0 mi NE 5.8 mph - N/A   Scattered Clouds
2:38 AM 51.8 °F - 37.4 °F 58% 30.23 in 10.0 mi NE 6.9 mph - N/A   Mostly Cloudy
2:56 AM 51.8 °F - 37.4 °F 58% 30.22 in 10.0 mi NE 8.1 mph - N/A   Overcast
3:15 AM 51.8 °F - 37.4 °F 58% 30.23 in 10.0 mi ENE 4.6 mph - N/A   Overcast
3:36 AM 51.8 °F - 39.2 °F 62% 30.22 in 10.0 mi NE 6.9 mph - N/A Rain Light Rain
3:59 AM 50.0 °F - 39.2 °F 66% 30.21 in 10.0 mi NE 6.9 mph - N/A   Light Drizzle
4:17 AM 48.2 °F - 42.8 °F 82% 30.21 in 10.0 mi ENE 5.8 mph - N/A Rain Rain
4:35 AM 48.2 °F - 42.8 °F 82% 30.22 in 10.0 mi ENE 6.9 mph - N/A Rain Light Rain
4:55 AM 46.4 °F 43.5 °F 44.6 °F 93% 30.22 in 10.0 mi ENE 5.8 mph - N/A Rain Rain
5:15 AM 46.4 °F 42.4 °F 44.6 °F 93% 30.22 in 10.0 mi NE 8.1 mph - N/A Rain Light Rain
5:20 AM 46.4 °F 42.4 °F 44.6 °F 93% 30.22 in 10.0 mi NE 8.1 mph - N/A Rain Light Rain
5:38 AM 46.4 °F 43.5 °F 44.6 °F 93% 30.21 in 10.0 mi NE 5.8 mph - N/A Rain Light Rain
5:56 AM 46.4 °F 42.9 °F 44.6 °F 93% 30.21 in 10.0 mi ENE 6.9 mph - N/A Rain Rain
6:15 AM 46.4 °F 43.5 °F 46.4 °F 100% 30.22 in 10.0 mi ENE 5.8 mph - N/A Rain Light Rain
6:36 AM 46.4 °F 42.4 °F 46.4 °F 100% 30.21 in 7.0 mi NE 8.1 mph - N/A Rain Rain
6:59 AM 48.2 °F - 46.4 °F 93% 30.20 in 7.0 mi NE 6.9 mph - N/A   Drizzle
7:17 AM 48.2 °F - 46.4 °F 93% 30.20 in 5.0 mi ENE 6.9 mph - N/A   Drizzle
7:35 AM 48.2 °F - 46.4 °F 93% 30.21 in 4.0 mi NE 9.2 mph - N/A   Heavy Drizzle
7:36 AM 48.2 °F - 46.4 °F 93% 30.21 in 4.0 mi NE 6.9 mph - N/A   Heavy Drizzle
7:55 AM 48.2 °F - 46.4 °F 93% 30.19 in 2.5 mi ENE 10.4 mph - N/A Rain Heavy Rain
7:56 AM 48.2 °F - 46.4 °F 93% 30.19 in 2.5 mi ENE 8.1 mph - N/A Rain Heavy Rain
8:15 AM 48.2 °F - 46.4 °F 93% 30.19 in 3.0 mi ENE 6.9 mph - N/A   Heavy Drizzle
8:38 AM 48.2 °F - 46.4 °F 93% 30.19 in 2.5 mi ENE 8.1 mph - N/A   Drizzle
8:56 AM 48.2 °F - 48.2 °F 100% 30.18 in 2.5 mi ENE 9.2 mph - N/A   Drizzle
9:15 AM 48.2 °F - 48.2 °F 100% 30.18 in 2.5 mi ENE 6.9 mph - N/A   Drizzle
9:16 AM 48.2 °F - 48.2 °F 100% 30.18 in 2.5 mi ENE 6.9 mph - N/A   Drizzle
9:35 AM 50.0 °F - 48.2 °F 94% 30.18 in 2.5 mi East 8.1 mph - N/A   Drizzle
9:36 AM 50.0 °F - 48.2 °F 94% 30.18 in 2.5 mi East 8.1 mph - N/A   Drizzle
9:59 AM 50.0 °F - 48.2 °F 94% 30.16 in 1.8 mi East 11.5 mph 17.3 mph N/A   Drizzle
10:17 AM 51.8 °F - 48.2 °F 88% 30.17 in 2.0 mi East 9.2 mph 17.3 mph N/A   Drizzle
10:35 AM 51.8 °F - 50.0 °F 94% 30.16 in 2.5 mi East 11.5 mph - N/A   Light Drizzle
10:55 AM 51.8 °F - 50.0 °F 94% 30.15 in 2.0 mi East 10.4 mph - N/A   Light Drizzle
11:15 AM 51.8 °F - 50.0 °F 94% 30.15 in 2.5 mi East 5.8 mph - N/A   Light Drizzle
11:19 AM 51.8 °F - 50.0 °F 94% 30.15 in 2.5 mi East 10.4 mph - N/A   Light Drizzle
11:38 AM 51.8 °F - 50.0 °F 94% 30.14 in 2.0 mi East 9.2 mph 16.1 mph N/A Rain Light Rain
11:56 AM 51.8 °F - 50.0 °F 94% 30.14 in 2.5 mi East 10.4 mph - N/A   Light Drizzle
12:15 PM 51.8 °F - 51.8 °F 100% 30.13 in 2.5 mi East 8.1 mph - N/A   Light Drizzle
12:35 PM 51.8 °F - 51.8 °F 100% 30.13 in 3.0 mi East 8.1 mph 16.1 mph N/A   Light Drizzle
12:36 PM 51.8 °F - 51.8 °F 100% 30.13 in 3.0 mi East 9.2 mph 16.1 mph N/A   Light Drizzle
12:59 PM 53.6 °F - 51.8 °F 94% 30.13 in 2.5 mi East 6.9 mph - N/A Rain Light Rain
1:17 PM 53.6 °F - 51.8 °F 94% 30.12 in 2.5 mi East 5.8 mph - N/A   Light Drizzle
1:36 PM 53.6 °F - 51.8 °F 94% 30.11 in 2.0 mi East 8.1 mph - N/A   Overcast
1:55 PM 53.6 °F - 51.8 °F 94% 30.10 in 2.5 mi East 6.9 mph - N/A   Overcast
2:15 PM 53.6 °F - 51.8 °F 94% 30.09 in 4.0 mi East 8.1 mph - N/A   Overcast
2:20 PM 53.6 °F - 51.8 °F 94% 30.09 in 4.0 mi East 8.1 mph - N/A   Overcast
2:38 PM 53.6 °F - 53.6 °F 100% 30.08 in 4.0 mi East 9.2 mph 17.3 mph N/A   Overcast
2:56 PM 53.6 °F - 53.6 °F 100% 30.07 in 5.0 mi East 8.1 mph - N/A   Overcast
3:15 PM 53.6 °F - 53.6 °F 100% 30.08 in 3.0 mi East 9.2 mph - N/A   Overcast
3:16 PM 53.6 °F - 53.6 °F 100% 30.08 in 3.0 mi East 8.1 mph - N/A   Overcast
3:35 PM 53.6 °F - 53.6 °F 100% 30.07 in 3.0 mi East 8.1 mph - N/A   Overcast
3:59 PM 53.6 °F - 53.6 °F 100% 30.06 in 2.5 mi East 8.1 mph - N/A   Overcast
4:17 PM 53.6 °F - 53.6 °F 100% 30.06 in 2.5 mi East 9.2 mph 16.1 mph N/A   Overcast
4:35 PM 55.4 °F - 53.6 °F 94% 30.05 in 2.0 mi East 10.4 mph 16.1 mph N/A   Overcast
4:36 PM 55.4 °F - 53.6 °F 94% 30.05 in 2.0 mi East 8.1 mph 16.1 mph N/A   Overcast
4:55 PM 55.4 °F - 53.6 °F 94% 30.05 in 2.5 mi East 8.1 mph 16.1 mph N/A   Light Drizzle
5:15 PM 55.4 °F - 53.6 °F 94% 30.04 in 2.5 mi East 8.1 mph - N/A   Overcast
5:38 PM 55.4 °F - 53.6 °F 94% 30.03 in 2.5 mi East 9.2 mph - N/A   Overcast
5:56 PM 55.4 °F - 53.6 °F 94% 30.03 in 3.0 mi East 8.1 mph - N/A   Overcast
6:15 PM 55.4 °F - 53.6 °F 94% 30.03 in 4.0 mi ESE 8.1 mph - N/A   Overcast
6:16 PM 55.4 °F - 53.6 °F 94% 30.04 in 4.0 mi ESE 8.1 mph - N/A   Overcast
6:35 PM 55.4 °F - 53.6 °F 94% 30.03 in 3.0 mi East 8.1 mph 16.1 mph N/A Rain Rain
6:59 PM 55.4 °F - 53.6 °F 94% 30.02 in 4.0 mi East 8.1 mph - N/A   Drizzle
7:17 PM 55.4 °F - 53.6 °F 94% 30.01 in 4.0 mi East 6.9 mph - N/A   Light Drizzle
7:35 PM 55.4 °F - 53.6 °F 94% 30.02 in 3.0 mi East 8.1 mph 16.1 mph N/A   Drizzle
7:36 PM 55.4 °F - 53.6 °F 94% 30.02 in 3.0 mi East 8.1 mph 16.1 mph N/A   Drizzle
7:55 PM 55.4 °F - 53.6 °F 94% 30.00 in 5.0 mi East 8.1 mph - N/A   Light Drizzle
8:15 PM 55.4 °F - 53.6 °F 94% 30.00 in 10.0 mi East 10.4 mph 16.1 mph N/A   Overcast
8:38 PM 55.4 °F - 53.6 °F 94% 30.00 in 4.0 mi East 6.9 mph 18.4 mph N/A   Overcast
8:56 PM 55.4 °F - 53.6 °F 94% 30.01 in 3.0 mi East 8.1 mph - N/A   Overcast
9:15 PM 55.4 °F - 53.6 °F 94% 30.01 in 2.5 mi East 10.4 mph - N/A   Overcast
9:35 PM 55.4 °F - 53.6 °F 94% 29.99 in 2.5 mi East 9.2 mph - N/A Thunderstorm Unknown
9:59 PM 55.4 °F - 53.6 °F 94% 30.00 in 3.0 mi ESE 9.2 mph - N/A Thunderstorm Overcast
10:16 PM 55.4 °F - 53.6 °F 94% 29.99 in 2.5 mi East 4.6 mph - N/A Rain , Thunderstorm Light Thunderstorms and Rain
10:35 PM 55.4 °F - 55.4 °F 100% 29.98 in 2.5 mi East 8.1 mph - N/A Rain , Thunderstorm Light Thunderstorms and Rain
10:36 PM 55.4 °F - 55.4 °F 100% 29.98 in 2.5 mi East 8.1 mph - N/A Rain , Thunderstorm Light Thunderstorms and Rain
10:55 PM 55.4 °F - 55.4 °F 100% 29.96 in 4.0 mi ESE 9.2 mph - N/A Rain , Thunderstorm Rain
10:56 PM 55.4 °F - 55.4 °F 100% 29.96 in 4.0 mi East 9.2 mph - N/A Rain , Thunderstorm Rain
11:15 PM 55.4 °F - 55.4 °F 100% 29.94 in 5.0 mi ESE 9.2 mph - N/A Rain , Thunderstorm Thunderstorms and Rain
11:20 PM 55.4 °F - 55.4 °F 100% 29.93 in 5.0 mi ESE 15.0 mph 20.7 mph N/A Rain , Thunderstorm Heavy Thunderstorms and Rain
11:39 PM 55.4 °F - 55.4 °F 100% 29.90 in 10.0 mi ESE 13.8 mph 17.3 mph N/A Rain , Thunderstorm Thunderstorms and Rain
11:58 PM 57.2 °F - 55.4 °F 94% 29.89 in 1.5 mi SE 16.1 mph 23.0 mph N/A Rain , Thunderstorm Heavy Thunderstorms and Rain